Voltar ao catálogo

STARLINK-34289

AtivoComunicaçõesVLEO
NORAD 64225·PAYLOAD·🇺🇸 United States

Lançado May 31, 2025 de Vandenberg Space Force Base

Loading…

Próximas Passagens (próximas 24 horas)

TLE

AtualizadoSource: CelesTrak SupGP

Época: Sep 15, 2026, 03:56 UTC

1 64225C 25117Y   26258.16437500 -.00043431  00000+0 -12833-2 0  2587
2 64225  53.1580 236.4553 0001387  88.7991  76.5443 15.34410025    17

Acompanhe STARLINK-34289 em tempo real com AllMySat

Download on the App Store